Location: Ammerl�gen
(47.2167°N, 9.6000°E)
Time: 11:13:17
(UTC+00:00)

CZ-4 R/B DEB - Pass Details

Date: 26 October 2021
Orbit: 738 x 791 km, 98.5° (Epoch: 26 November)

Event Time Altitude Azimuth Distance (km) Brightness Sun altitude
Exits shadow 19:23:16 42° 302° (WNW) 1,059 ? -32.4°
Drops below altitude 10° 19:26:57 10° 336° (NNW) 2,263 ? -33.0°
Sets 19:29:19 0° 342° (NNW) 3,195 ? -33.4°
